This is the latest recevied weather packets stored in our database for station/object VK6DUG. If no packets are shown the sender has not sent any weather packets the latest 10 day(s).
| Time | Temp. | Humidity | Pressure | Rain* | Wind** | Luminosity | Snow |
|---|---|---|---|---|---|---|---|
| 1778091633 | 12.78° C | 73% | 1033.1 hPa | 0 mm | - | 0 W/m² | - |
| 1778091031 | 13.33° C | 72% | 1033.2 hPa | 0 mm | - | 0 W/m² | - |
| 1778090428 | 13.33° C | 72% | 1033.2 hPa | 0 mm | - | 0 W/m² | - |
| 1778089824 | 13.89° C | 71% | 1033.1 hPa | 0 mm | - | 0 W/m² | - |
| 1778089221 | 13.89° C | 71% | 1033.1 hPa | 0 mm | - | 0 W/m² | - |
| 1778088618 | 13.89° C | 71% | 1033.1 hPa | 0 mm | - | 0 W/m² | - |
| 1778088016 | 13.89° C | 71% | 1033 hPa | 0 mm | - | 0 W/m² | - |
| 1778087433 | 13.89° C | 70% | 1033.1 hPa | 0 mm | - | 0 W/m² | - |
| 1778086831 | 13.89° C | 70% | 1033 hPa | 0 mm | - | 0 W/m² | - |
| 1778086225 | 14.44° C | 70% | 1033.1 hPa | 0 mm | - | 0 W/m² | - |
| 1778085622 | 13.89° C | 71% | 1033.2 hPa | 0 mm | - | 0 W/m² | - |
| 1778085019 | 13.89° C | 70% | 1033.2 hPa | 0 mm | - | 0 W/m² | - |
| 1778084416 | 14.44° C | 70% | 1033.2 hPa | 0 mm | - | 0 W/m² | - |
| 1778083834 | 13.89° C | 71% | 1033.4 hPa | 0 mm | - | 0 W/m² | - |
| 1778083232 | 13.33° C | 71% | 1033.2 hPa | 0 mm | - | 0 W/m² | - |
| 1778082628 | 13.33° C | 72% | 1033.2 hPa | 0 mm | - | 0 W/m² | - |
| 1778082023 | 13.33° C | 71% | 1033.2 hPa | 0 mm | - | 0 W/m² | - |
| 1778081420 | 13.89° C | 71% | 1033.2 hPa | 0 mm | - | 0 W/m² | - |
| 1778080818 | 13.33° C | 72% | 1033.3 hPa | 0 mm | - | 0 W/m² | - |
| 1778080234 | 12.78° C | 74% | 1033.2 hPa | 0 mm | - | 0 W/m² | - |
| 1778079629 | 12.78° C | 74% | 1033.3 hPa | 0 mm | - | 0 W/m² | - |
| 1778079025 | 13.33° C | 75% | 1033.2 hPa | 0 mm | - | 0 W/m² | - |
| 1778078419 | 12.78° C | 76% | 1033.4 hPa | 0 mm | - | 0 W/m² | - |
| 1778077833 | 12.78° C | 75% | 1033.2 hPa | 0 mm | - | 0 W/m² | - |
| 1778077229 | 13.33° C | 74% | 1033.3 hPa | 0 mm | - | 0 W/m² | - |
* Rain latest hour (hover to see other rain measurements)
** Current wind speed in m/s (hover to see current wind gust speed)